DECAYED

OBJECT C, 60205 (Decayed)

Orbit data source: Space-Track

You're viewing an uncataloged RSO

Recently launched and/or uncataloged RSOs may have evolving metadata. Metadata may include the following, but is not limited to: Owner, Manufacturer, Bus, Motor, and Mission.

OBJECT C, 60205 was an American satellite in LEO that was launched on Thu, 04 Jul 2024 UTC via an FIREFLY ALPHA launch vehicle from the Air Force Western Test Range (AFWTR). Unknown objects in Earth's orbit typically refer to objects detected orbiting the Earth but have not yet been identified or cataloged. These objects could be anything from previously untracked satellites, spent rocket stages, debris from satellite collisions, or even natural meteoroids temporarily captured by Earth's gravity. This object's orbit decayed before it could be identified.

Not visible in the next 10 days
Identifier
60205, 2024-125C
Orbit
Decayed
Country
Flag of USUS
Related business
None
Manufacturer
Unknown
Mission
Decayed Amateur Communications
Bus & Motor
Unknown
Mass
Unknown
Launch date (UTC)
2024-07-04 (2 years ago)
Launch vehicle
FIREFLY ALPHA
Launch site
Air Force Western Test Range (AFWTR)
Object type
Unknown
Shape & HBR
Box, 0.2 m
Radar Cross Section
0.035 m², Medium (>0.1 m² and < 1m²)

Expand to show TLE details & history
Last TLE update: 5 months ago

TLE from 5 months ago
0 OBJECT C
1 60205U 24125C   26098.34904479  .12158741  24798-5  42926-3 0  9992
2 60205  97.2087 323.0488 0008297 255.7078 104.3303 16.43790500 99261
Epoch: 2026-04-08T08:22Z
TLE epoch observation values (Epoch: 2026-04-08T08:22:37.469Z)
Latitude
-0.00003°
Longitude
0.77999°
Altitude
160.347 km
Speed
7.809 km/s
True Right ascension
21h 32m 11s
True Declination
0° 00' 00"
Sunlit
Object was in daylight at epoch
Visualization orbit readout
Latitude
Unknown
Longitude
Unknown
Altitude
Unknown
Speed
Unknown
Apparent Right ascension
Unknown
Apparent Declination
Unknown
Sunlit
N/A
Visualization observer readout
Local Sidereal Time
16:43:21
Azimuth
Unknown
Elevation
Unknown
Doppler factor
Unknown
Orbital elements
Apogee altitude
157.951 km
Perigee altitude
147.114 km
Semi-major axis
6,530.67 km
Eccentricity
0.00083
Inclination
97.2087°
RAAN
323.0488°
Arg. of periapsis
255.7078°
True anomaly
104.42239°
Mean anomaly
104.3303°
Eccentric anomaly
104.37635°
Mean motion
4.11251 °/min
Orbital period
87.54 mins
BSTAR
0.00042926
Loading maneuver chart data...
Computing Atmospheric mass density...
Loading historical data...
Loading historical data...
Loading historical data...
Loading historical data...
Loading historical data...
Loading historical data...
Loading historical data...

Documentation

Showing up to 5 results
|